Flag for U.S.A. Weather past 2 weeks in Columbia, South Carolina, U.S.A.

Now
44 °F

Clear.


Feels Like: 44 °F
Forecast: 36 / 62 °F
Wind: No wind

Location: Columbia Owens Downtown Airport

Current Time: Dec 26, 2014 at 8:43:12 PM

Latest Report: Dec 26, 2014 at 7:53 PM


Visibility: 10 mi

Pressure: 30.33 "Hg

Humidity: 82%

Dew point: 39 °F

Location of ColumbiaLocation

Historic Weather in Columbia — Graph

°F

Columbia temperature yesterday

Maximum temperature yesterday: 58 °F (at 2:53 PM)
Minimum temperature yesterday: 39 °F (at 11:53 PM)
Average temperature yesterday: 51 °F

Past Weeks' High & Low Weather Summary

 TemperatureHumidityPressure
High68 °F (Dec 15, 3:53 PM)97% (Dec 24, 2:53 AM)30.38 "Hg (Dec 24, 2:53 AM)
Low27 °F (Dec 12, 6:53 AM)16% (Dec 12, 2:53 PM)29.69 "Hg (Dec 24, 4:53 PM)
Average47 °F73%30.10 "Hg
* Reported Dec 11 6:53 PM — Dec 26 6:53 PM, Columbia, Weather by CustomWeather, © 2014

Note: Actual official high and low records may vary slightly from our data, if they occured in-between our weather recording intervals... More about our weather records

Advertising

Columbia weather history for previous 24 hours

 ConditionsComfort  
Time TempWeatherWind HumidityBarometerVisibility
6:53 PM
Dec 26
47 °FClear.No wind74%30.33 "Hg10 mi
5:53 PM51 °FClear.No wind66%30.30 "Hg10 mi
4:53 PM59 °FSunny.No wind42%30.29 "Hg10 mi
3:53 PM60 °FSunny.3 mph39%30.29 "Hg10 mi
2:53 PM59 °FSunny.No wind39%30.30 "Hg10 mi
1:53 PM58 °FSunny.3 mph44%30.30 "Hg10 mi
12:53 PM58 °FSunny.6 mph44%30.33 "Hg10 mi
11:53 AM56 °FSunny.3 mph47%30.35 "Hg10 mi
10:53 AM51 °FSunny.No wind63%30.38 "Hg10 mi
9:53 AM45 °FSunny.No wind82%30.38 "Hg10 mi
8:53 AM39 °FSunny.No wind86%30.37 "Hg8 mi
7:53 AM33 °FFog.No wind92%30.36 "Hg5 mi
6:53 AM33 °FFog.No wind92%30.32 "Hg6 mi
5:53 AM34 °FFog.No wind92%30.31 "Hg6 mi
5:03 AM36 °FFog.No wind92%30.30 "Hg1 mi
4:53 AM35 °FFog.No wind92%30.30 "Hg0 mi
3:53 AM36 °FFog.No wind89%30.29 "Hg5 mi
2:53 AM36 °FFog.No wind89%30.28 "Hg4 mi
1:53 AM37 °FFog.No wind89%30.28 "Hg5 mi
12:53 AM38 °FFog.No wind90%30.27 "Hg5 mi
11:53 PM
Dec 25
39 °FFog.No wind89%30.27 "Hg6 mi
10:53 PM40 °FClear.No wind89%30.28 "Hg7 mi
9:53 PM41 °FClear.No wind89%30.27 "Hg10 mi
8:53 PM43 °FClear.No wind86%30.27 "Hg9 mi
Weather by CustomWeather, © 2014

See weather overviewHow to use our weather pages